Hilton Head Island, SC

11:58 AM EDT on March 27, 2017 (GMT -0400)
Hilton Head

Weather History for KHXD - July, 2013

Change the Weather History Date:

Saturday, July 27, 2013

  Actual Average Record
Temperature  
Mean Temperature 81 °F -  
Max Temperature 84 °F 89 °F 102 °F (2016)
Min Temperature 78 °F 72 °F 68 °F (1954)
Cooling Degree Days 16    
Growing Degree Days 31 (Base 50)    
Moisture  
Dew Point 75 °F    
Average Humidity 82    
Maximum Humidity 89    
Minimum Humidity 70    
Precipitation  
Precipitation 0.00 in - - ()
Sea Level Pressure  
Sea Level Pressure 29.99 in    
Wind  
Wind Speed 4 mph (SE)    
Max Wind Speed 8 mph    
Max Gust Speed -    
Visibility 10 miles    
Events      
Averages and records for this station are not official NWS values.
T = Trace of Precipitation, MM = Missing Value Source: NWS Daily Summary

Daily Weather History Graph

Daily Weather History Graph

Search for Another Location

Airport or City:

Trip Planner

Search our weather history database for the weather conditions in past years. The results will help you decide how hot, cold, wet, or windy it might be!

Date:

Astronomy

Jul. 27, 2013 Rise Set
Actual Time 6:34 AM EDT 8:23 PM EDT
Civil Twilight 6:07 AM EDT 8:50 PM EDT
Nautical Twilight 5:34 AM EDT 9:23 PM EDT
Astronomical Twilight 5:00 AM EDT 9:57 PM EDT
Moon 11:35 PM EDT 11:49 AM EDT
Length of Visible Light 14h 43m
Length of Day
13h 49m
Waning Gibbous, 71% of the Moon is Illuminated
Jul 27
Waning Gibbous
Jul 29
Last Quarter
Aug 6
New
Aug 14
First Quarter
Aug 20
Full

Hourly Weather History & Observations

Time (EDT) Temp. Heat Index Dew Point Humidity Pressure Visibility Wind Dir Wind Speed Gust Speed Precip Events Conditions
12:15 AM 80.6 °F 87.1 °F 77.0 °F 89% 30.05 in 10.0 mi ENE 4.6 mph - 0.00 in   Mostly Cloudy
12:35 AM 80.6 °F 87.1 °F 77.0 °F 89% 30.05 in 10.0 mi East 4.6 mph - 0.00 in   Mostly Cloudy
12:55 AM 80.6 °F 87.1 °F 77.0 °F 89% 30.05 in 10.0 mi ENE 4.6 mph - 0.00 in   Scattered Clouds
1:15 AM 80.6 °F 87.1 °F 77.0 °F 89% 30.04 in 10.0 mi East 3.5 mph - 0.00 in   Scattered Clouds
1:35 AM 80.6 °F 87.1 °F 77.0 °F 89% 30.03 in 10.0 mi East 4.6 mph - 0.00 in   Scattered Clouds
1:55 AM 80.6 °F 87.1 °F 77.0 °F 89% 30.03 in 10.0 mi East 4.6 mph - 0.00 in   Partly Cloudy
2:15 AM 80.6 °F 87.1 °F 77.0 °F 89% 30.02 in 10.0 mi ESE 5.8 mph - 0.00 in   Partly Cloudy
2:35 AM 80.6 °F 87.1 °F 77.0 °F 89% 30.00 in 10.0 mi East 4.6 mph - 0.00 in   Scattered Clouds
2:55 AM 80.6 °F 86.2 °F 75.2 °F 84% 30.00 in 10.0 mi ESE 3.5 mph - 0.00 in   Scattered Clouds
3:15 AM 80.6 °F 86.2 °F 75.2 °F 84% 29.99 in 10.0 mi SE 3.5 mph - 0.00 in   Scattered Clouds
3:35 AM 80.6 °F 86.2 °F 75.2 °F 84% 29.99 in 10.0 mi SE 3.5 mph - 0.00 in   Scattered Clouds
3:55 AM 80.6 °F 86.2 °F 75.2 °F 84% 29.98 in 10.0 mi ESE 3.5 mph - 0.00 in   Scattered Clouds
4:15 AM 80.6 °F 86.2 °F 75.2 °F 84% 29.99 in 10.0 mi SE 3.5 mph - 0.00 in   Partly Cloudy
4:35 AM 80.6 °F 86.2 °F 75.2 °F 84% 29.99 in 10.0 mi Calm Calm - 0.00 in   Partly Cloudy
4:55 AM 80.6 °F 86.2 °F 75.2 °F 84% 29.99 in 10.0 mi ESE 4.6 mph - 0.00 in   Scattered Clouds
5:15 AM 80.6 °F 86.2 °F 75.2 °F 84% 29.99 in 10.0 mi SE 3.5 mph - 0.00 in   Scattered Clouds
5:35 AM 80.6 °F 86.2 °F 75.2 °F 84% 30.00 in 10.0 mi Calm Calm - 0.00 in   Partly Cloudy
5:55 AM 78.8 °F - 75.2 °F 89% 30.00 in 10.0 mi SE 3.5 mph - 0.00 in   Partly Cloudy
6:15 AM 78.8 °F - 75.2 °F 89% 30.00 in 10.0 mi Calm Calm - 0.00 in   Partly Cloudy
6:35 AM 80.6 °F 86.2 °F 75.2 °F 84% 30.00 in 10.0 mi SE 3.5 mph - 0.00 in   Partly Cloudy
7:50 AM 82.4 °F 88.2 °F 73.4 °F 74% 30.01 in 10.0 mi SSE 3.5 mph - N/A   Scattered Clouds
8:50 AM 82.4 °F 88.2 °F 73.4 °F 74% 30.00 in 10.0 mi SSE 4.6 mph - N/A   Scattered Clouds
9:50 AM 82.4 °F 88.2 °F 73.4 °F 74% 30.02 in 10.0 mi SSE 6.9 mph - N/A   Scattered Clouds
10:50 AM 84.2 °F 90.9 °F 73.4 °F 70% 30.02 in 10.0 mi SE 5.8 mph - N/A   Scattered Clouds
11:50 AM 84.2 °F 90.9 °F 73.4 °F 70% 30.01 in 10.0 mi South 6.9 mph - N/A   Partly Cloudy
12:50 PM 84.2 °F 92.3 °F 75.2 °F 74% 30.00 in 10.0 mi South 6.9 mph - N/A   Partly Cloudy
1:50 PM 82.4 °F 88.2 °F 73.4 °F 74% 29.98 in 10.0 mi SSE 8.1 mph - N/A   Partly Cloudy
2:47 PM 84.2 °F 90.9 °F 73.4 °F 70% 29.95 in 10.0 mi SSE 8.1 mph - N/A   Clear
3:50 PM 84.2 °F 90.9 °F 73.4 °F 70% 29.93 in 10.0 mi SSE 8.1 mph - N/A   Scattered Clouds
4:50 PM 82.4 °F 87.2 °F 71.6 °F 70% 29.95 in 10.0 mi South 6.9 mph - N/A   Mostly Cloudy
5:47 PM 82.4 °F 88.2 °F 73.4 °F 74% 29.94 in 10.0 mi SSE 6.9 mph - N/A   Mostly Cloudy
6:50 PM 82.4 °F 88.2 °F 73.4 °F 74% 29.93 in 10.0 mi Calm Calm - N/A   Scattered Clouds
7:47 PM 82.4 °F 88.2 °F 73.4 °F 74% 29.94 in 10.0 mi Calm Calm - N/A   Partly Cloudy
9:15 PM 80.6 °F 86.2 °F 75.2 °F 84% 29.95 in 10.0 mi Calm Calm - 0.00 in   Clear
9:35 PM 80.6 °F 86.2 °F 75.2 °F 84% 29.96 in 10.0 mi Calm Calm - 0.00 in   Scattered Clouds
9:55 PM 80.6 °F 86.2 °F 75.2 °F 84% 29.96 in 10.0 mi Calm Calm - 0.00 in   Partly Cloudy
10:15 PM 80.6 °F 86.2 °F 75.2 °F 84% 29.96 in 10.0 mi Calm Calm - 0.00 in   Clear
10:35 PM 80.6 °F 86.2 °F 75.2 °F 84% 29.96 in 10.0 mi SW 3.5 mph - 0.00 in   Partly Cloudy
10:55 PM 78.8 °F - 75.2 °F 89% 29.95 in 10.0 mi Calm Calm - 0.00 in   Clear
11:15 PM 78.8 °F - 75.2 °F 89% 29.95 in 10.0 mi Calm Calm - 0.00 in   Clear
11:35 PM 78.8 °F - 75.2 °F 89% 29.95 in 10.0 mi SSE 3.5 mph - 0.00 in   Clear
11:55 PM 78.8 °F - 75.2 °F 89% 29.95 in 10.0 mi Calm Calm - 0.00 in   Clear